Regional Weather Roundup
Issued by NWS Sioux Falls, SD

Home | Current Version | Previous Version | Text Only | Print | Product List | Glossary On
Versions: 1 2 3 4 5 6 7 8 9 10 11 12 13 14 15 16 17 18 19 20 21 22 23 24 25 26 27 28 29 30 31 32 33 34 35 36 37 38 39 40 41 42 43 44 45 46 47 48 49 50
000
ASUS43 KFSD 261502
RWRFSD

WEATHER ROUNDUP FOR SE SOUTH DAKOTA/SW MINNESOTA/NW IOWA
NATIONAL WEATHER SERVICE SIOUX FALLS SD
900 AM CST WED NOV 26 2014

NOTE: "FAIR" INDICATES FEW OR NO CLOUDS BELOW 12,000 FEET WITH NO
SIGNIFICANT WEATHER AND OR OBSTRUCTIONS TO VISIBILITY.


SDZ038>040-050-052>070-261600-
SOUTHEAST SOUTH DAKOTA

CITY           SKY/WX    TMP DP  RH WIND       PRES   REMARKS
CHAMBERLAIN    NOT AVBL
HURON          LGT SNOW  10   6  84 N22G28    30.29R FOG     WCI -10
MADISON        LGT RAIN  18  18 100 N22G29    30.13R WCI   0
MITCHELL       CLOUDY    15  10  80 N23G32    30.24R BLWGSNOWWCI  -3
SIOUX FALLS    LGT SNOW  23  18  81 N20G25    30.10R WCI   8
WINNER         CLOUDY    22  16  78 N15       30.27R WCI   9
YANKTON        CLOUDY    25  19  80 NW24      30.15R WCI   9
$$

MNZ071-072-080-081-089-090-097-098-261600-
SOUTHWEST MINNESOTA

CITY           SKY/WX    TMP DP  RH WIND       PRES   REMARKS
FAIRMONT       CLOUDY    25  21  86 N12       30.03R WCI  14
JACKSON        LGT SNOW  27  23  86 N15       30.03R WCI  15
LUVERNE        LGT SNOW  27  21  80 N20G29    30.08R WCI  13
MARSHALL       CLOUDY    21  16  79 N22       30.14R WCI   5
MONTEVIDEO     PTSUNNY   21  19  93 N16       30.19R FOG     WCI   7
PIPESTONE      LGT SNOW  19  18  93 NE18G29   30.08R WCI   4
REDWOOD FALLS  SNOW      24  21  88 N12       30.13R VSB 1/4 WCI  13
TRACY          SNOW      23  21  93 N20       30.12R VSB 1/2 WCI   8
WINDOM         LGT SNOW  23  21  93 N18       30.06R WCI   9
WORTHINGTON    CLOUDY    21  19  93 N18G26    30.06R WCI   6
$$

IAZ001>003-012>014-020>022-031-032-NEZ013-014-SDZ071-261600-
NORTHWEST IOWA

CITY           SKY/WX    TMP DP  RH WIND       PRES   REMARKS
DENISON        LGT SNOW  32  32 100 N7        29.91R WCI  26
ESTHERVILLE    LGT SNOW  25  23  92 N15       30.02R VSB 1   WCI  13
SIOUX CITY     CLOUDY    31  26  82 N26G35    30.02R WCI  17
SPENCER        LGT SNOW  27  24  89 N16       30.01R VSB 1   WCI  15
$$

ABBREVIATIONS USED IN REMARKS
   TC - TEMPERATURE IN CELSIUS
  WCI - WIND CHILL INDEX
   HX - HEAT INDEX
  VSB - VISIBILITY



USA.gov is the U.S. government's official web portal to all federal, state and local government web resources and services.